APSTAR-7

Last updated on Wed Sep 09 2026 00:02:59 GMT+0000 (Coordinated Universal Time)

1 38107U 12013A 26251.58821660 -.00000123 00000+0 00000+0 0 9993 2 38107 0.0095 149.2159 0002599 19.2890 107.4107 1.00271524 52650
UTC large
Height (km)
Speed (km/s)
/
Latitude / Longitude
Inclination (degrees)
Orbital Period (minutes)
Azimuth
Elevation
Range (km)
Doppler Factor

Next 0 passes for location: London (51.5072 / 0.1276)

No passes found over London.
APSTAR-7